| time (UTC) | temp F | wind direction | speed knots | gust knots | rain 1hr in | rain 24hr in | rain mn in | humidity % | barometer mb |
| 20260508225045 | 74 | 319 | 0.0 | 1.7 | 0.00 | 0.00 | 0.00 | 85 | 1012.9 |
| 20260508224549 | 74 | 11 | 0.0 | 3.5 | 0.00 | 0.00 | 0.00 | 85 | 1012.9 |
| 20260508224044 | 74 | 335 | 0.0 | 3.5 | 0.00 | 0.00 | 0.00 | 85 | 1012.7 |
| 20260508223543 | 74 | 302 | 0.0 | 1.7 | 0.00 | 0.00 | 0.00 | 85 | 1012.7 |
| 20260508223047 | 74 | 323 | 0.0 | 1.7 | 0.00 | 0.00 | 0.00 | 85 | 1012.9 |
| 20260508222541 | 74 | 309 | 0.0 | 1.7 | 0.00 | 0.00 | 0.00 | 85 | 1013.0 |
| 20260508222041 | 75 | 323 | 0.0 | 3.5 | 0.00 | 0.00 | 0.00 | 84 | 1013.3 |
| 20260508221539 | 75 | 119 | 0.0 | 3.5 | 0.00 | 0.00 | 0.00 | 83 | 1012.8 |
| 20260508221038 | 76 | 242 | 0.0 | 3.5 | 0.00 | 0.00 | 0.00 | 82 | 1012.7 |
| 20260508220536 | 76 | 319 | 0.0 | 3.5 | 0.00 | 0.00 | 0.00 | 81 | 1012.8 |
| 20260508220039 | 77 | 83 | 0.0 | 1.7 | 0.00 | 0.00 | 0.00 | 80 | 1012.8 |
| 20260508215535 | 77 | 10 | 0.0 | 1.7 | 0.00 | 0.00 | 0.00 | 80 | 1013.0 |
| 20260508215042 | 77 | 147 | 0.0 | 3.5 | 0.00 | 0.00 | 0.00 | 79 | 1013.2 |
| 20260508214540 | 77 | 6 | 0.0 | 3.5 | 0.00 | 0.00 | 0.00 | 78 | 1013.1 |
| 20260508214043 | 78 | 304 | 0.0 | 3.5 | 0.00 | 0.00 | 0.00 | 77 | 1013.1 |
| 20260508213534 | 79 | 128 | 0.0 | 3.5 | 0.00 | 0.00 | 0.00 | 77 | 1013.1 |
| 20260508213034 | 79 | 192 | 0.0 | 3.5 | 0.00 | 0.00 | 0.00 | 77 | 1012.9 |
| 20260508212533 | 79 | 220 | 0.9 | 6.1 | 0.00 | 0.00 | 0.00 | 77 | 1012.8 |
| 20260508212040 | 79 | 317 | 0.9 | 6.1 | 0.00 | 0.00 | 0.00 | 77 | 1012.9 |
| 20260508211539 | 80 | 319 | 0.0 | 5.2 | 0.00 | 0.00 | 0.00 | 76 | 1013.0 |
| 20260508211032 | 79 | 321 | 0.0 | 5.2 | 0.00 | 0.00 | 0.00 | 76 | 1012.9 |
| 20260508210528 | 79 | 271 | 0.0 | 3.5 | 0.00 | 0.00 | 0.00 | 76 | 1012.9 |
| 20260508210032 | 79 | 300 | 0.9 | 3.5 | 0.00 | 0.00 | 0.00 | 75 | 1012.8 |
| 20260508205528 | 79 | 144 | 0.0 | 4.3 | 0.00 | 0.00 | 0.00 | 76 | 1012.8 |
| 20260508205029 | 80 | 329 | 0.9 | 4.3 | 0.00 | 0.00 | 0.00 | 75 | 1012.8 |
| 20260508204527 | 80 | 291 | 0.0 | 1.7 | 0.00 | 0.00 | 0.00 | 74 | 1012.6 |
| 20260508204024 | 81 | 134 | 0.0 | 4.3 | 0.00 | 0.00 | 0.00 | 74 | 1012.8 |
| 20260508203026 | 82 | 78 | 0.0 | 2.6 | 0.00 | 0.00 | 0.00 | 71 | 1012.8 |
| 20260508202520 | 82 | 133 | 0.0 | 1.7 | 0.00 | 0.00 | 0.00 | 73 | 1012.7 |
| 20260508202020 | 82 | 325 | 0.0 | 1.7 | 0.00 | 0.00 | 0.00 | 72 | 1012.7 |
| 20260508201520 | 82 | 239 | 0.0 | 1.7 | 0.00 | 0.00 | 0.00 | 72 | 1012.6 |
| 20260508201030 | 83 | 248 | 0.0 | 3.5 | 0.00 | 0.00 | 0.00 | 71 | 1012.8 |
| 20260508200519 | 84 | 189 | 0.0 | 5.2 | 0.00 | 0.00 | 0.00 | 70 | 1012.8 |
| 20260508200019 | 85 | 146 | 0.9 | 5.2 | 0.00 | 0.00 | 0.00 | 68 | 1012.8 |
| 20260508195516 | 85 | 300 | 0.0 | 3.5 | 0.00 | 0.00 | 0.00 | 69 | 1012.8 |
| 20260508195024 | 85 | 245 | 0.0 | 4.3 | 0.00 | 0.00 | 0.00 | 70 | 1013.1 |
| 20260508194515 | 85 | 108 | 0.9 | 4.3 | 0.00 | 0.00 | 0.00 | 71 | 1013.2 |
| 20260508194014 | 85 | 240 | 0.9 | 4.3 | 0.00 | 0.00 | 0.00 | 71 | 1013.4 |
| 20260508193513 | 84 | 221 | 0.0 | 4.3 | 0.00 | 0.00 | 0.00 | 72 | 1013.5 |
| 20260508193015 | 84 | 323 | 0.9 | 4.3 | 0.00 | 0.00 | 0.00 | 70 | 1013.5 |
| 20260508192513 | 84 | 202 | 0.9 | 3.5 | 0.00 | 0.00 | 0.00 | 70 | 1013.7 |
| 20260508192013 | 84 | 150 | 0.0 | 3.5 | 0.00 | 0.00 | 0.00 | 71 | 1013.7 |
| 20260508191613 | 84 | 292 | 0.0 | 5.2 | 0.00 | 0.00 | 0.00 | 71 | 1013.7 |
| 20260508191108 | 84 | 237 | 0.0 | 5.2 | 0.00 | 0.00 | 0.00 | 71 | 1013.7 |
| 20260508190507 | 83 | 313 | 0.0 | 6.1 | 0.00 | 0.00 | 0.00 | 72 | 1013.9 |
| 20260508190006 | 84 | 113 | 0.9 | 6.1 | 0.00 | 0.00 | 0.00 | 71 | 1013.9 |
| 20260508185505 | 83 | 136 | 0.0 | 0.9 | 0.00 | 0.00 | 0.00 | 73 | 1013.8 |
| 20260508185006 | 83 | 338 | 0.0 | 1.7 | 0.00 | 0.00 | 0.00 | 72 | 1014.0 |
| 20260508184503 | 84 | 319 | 0.0 | 2.6 | 0.00 | 0.00 | 0.00 | 71 | 1014.0 |
| 20260508184001 | 84 | 89 | 0.0 | 2.6 | 0.00 | 0.00 | 0.00 | 70 | 1014.1 |
| 20260508183502 | 85 | 94 | 0.0 | 2.6 | 0.00 | 0.00 | 0.00 | 69 | 1014.1 |
| 20260508183003 | 86 | 286 | 0.9 | 2.6 | 0.00 | 0.00 | 0.00 | 68 | 1014.1 |
| 20260508182600 | 86 | 222 | 0.0 | 2.6 | 0.00 | 0.00 | 0.00 | 68 | 1014.0 |
| 20260508182508 | 86 | 144 | 0.0 | 2.6 | 0.00 | 0.00 | 0.00 | 68 | 1014.0 |
| 20260508182100 | 86 | 283 | 0.0 | 2.6 | 0.00 | 0.00 | 0.00 | 70 | 1014.0 |
| 20260508182001 | 86 | 87 | 0.0 | 3.5 | 0.00 | 0.00 | 0.00 | 68 | 1014.1 |
| 20260508181558 | 85 | 312 | 0.0 | 3.5 | 0.00 | 0.00 | 0.00 | 70 | 1014.1 |
| 20260508181100 | 86 | 321 | 0.0 | 4.3 | 0.00 | 0.00 | 0.00 | 69 | 1014.1 |
| 20260508180558 | 85 | 259 | 0.0 | 4.3 | 0.00 | 0.00 | 0.00 | 70 | 1014.2 |
| 20260508180110 | 85 | 143 | 0.0 | 2.6 | 0.00 | 0.00 | 0.00 | 69 | 1014.3 |
| 20260508175612 | 85 | 232 | 0.0 | 3.5 | 0.00 | 0.00 | 0.00 | 70 | 1014.4 |
| 20260508175058 | 85 | 145 | 0.0 | 3.5 | 0.00 | 0.00 | 0.00 | 68 | 1014.3 |
| 20260508174553 | 85 | 98 | 0.0 | 2.6 | 0.00 | 0.00 | 0.00 | 70 | 1014.4 |
| 20260508174043 | 84 | 227 | 0.0 | 2.6 | 0.00 | 0.00 | 0.00 | 71 | 1014.4 |
| 20260508173544 | 84 | 180 | 0.0 | 5.2 | 0.00 | 0.00 | 0.00 | 69 | 1014.5 |
| 20260508173040 | 83 | 200 | 0.9 | 5.2 | 0.00 | 0.00 | 0.00 | 71 | 1014.6 |
| 20260508172537 | 83 | 300 | 0.0 | 3.5 | 0.00 | 0.00 | 0.00 | 72 | 1014.5 |
| 20260508172036 | 82 | 122 | 0.0 | 3.5 | 0.00 | 0.00 | 0.00 | 73 | 1014.5 |
| 20260508171537 | 81 | 157 | 0.0 | 4.3 | 0.00 | 0.00 | 0.00 | 75 | 1014.6 |
| 20260508171034 | 80 | 141 | 0.9 | 4.3 | 0.00 | 0.00 | 0.00 | 73 | 1014.8 |
| 20260508170533 | 79 | 236 | 0.0 | 2.6 | 0.00 | 0.00 | 0.00 | 77 | 1014.9 |
| 20260508170035 | 79 | 160 | 0.0 | 0.9 | 0.00 | 0.00 | 0.00 | 76 | 1014.9 |
| 20260508165532 | 79 | 91 | 0.0 | 0.9 | 0.00 | 0.00 | 0.00 | 76 | 1015.0 |
| 20260508165033 | 79 | 194 | 0.0 | 1.7 | 0.00 | 0.00 | 0.00 | 76 | 1015.3 |
| 20260508164532 | 80 | 88 | 0.0 | 1.7 | 0.00 | 0.00 | 0.00 | 77 | 1015.4 |
| 20260508164030 | 80 | 236 | 0.0 | 1.7 | 0.00 | 0.00 | 0.00 | 76 | 1015.3 |
| 20260508163531 | 81 | 294 | 0.0 | 1.7 | 0.00 | 0.00 | 0.00 | 77 | 1015.3 |
| 20260508163037 | 81 | 349 | 0.0 | 1.7 | 0.00 | 0.00 | 0.00 | 76 | 1015.4 |
| 20260508162526 | 80 | 287 | 0.0 | 1.7 | 0.00 | 0.00 | 0.00 | 78 | 1015.3 |
| 20260508162024 | 80 | 223 | 0.0 | 1.7 | 0.00 | 0.00 | 0.00 | 79 | 1015.3 |
| 20260508161533 | 79 | 330 | 0.0 | 2.6 | 0.00 | 0.00 | 0.00 | 79 | 1015.3 |
| 20260508161022 | 79 | 282 | 0.0 | 2.6 | 0.00 | 0.00 | 0.00 | 80 | 1015.4 |
| 20260508160523 | 78 | 125 | 0.0 | 2.6 | 0.00 | 0.00 | 0.00 | 79 | 1015.5 |
| 20260508160022 | 78 | 304 | 0.0 | 2.6 | 0.00 | 0.00 | 0.00 | 79 | 1015.7 |
| 20260508155524 | 78 | 71 | 0.0 | 2.6 | 0.00 | 0.00 | 0.00 | 78 | 1015.7 |
| 20260508155024 | 78 | 34 | 0.0 | 1.7 | 0.00 | 0.00 | 0.00 | 79 | 1015.7 |
| 20260508154518 | 79 | 234 | 0.0 | 1.7 | 0.00 | 0.00 | 0.00 | 78 | 1015.9 |
| 20260508154020 | 79 | 170 | 0.0 | 0.9 | 0.00 | 0.00 | 0.00 | 78 | 1015.9 |
| 20260508153517 | 79 | 316 | 0.0 | 3.5 | 0.00 | 0.00 | 0.00 | 78 | 1015.8 |
| 20260508153017 | 79 | 323 | 0.0 | 3.5 | 0.00 | 0.00 | 0.00 | 77 | 1015.8 |
| 20260508152516 | 79 | 300 | 0.0 | 4.3 | 0.00 | 0.00 | 0.00 | 77 | 1015.8 |
| 20260508152023 | 79 | 200 | 0.9 | 4.3 | 0.00 | 0.00 | 0.00 | 76 | 1015.7 |
| 20260508151515 | 80 | 328 | 0.0 | 1.7 | 0.00 | 0.00 | 0.00 | 76 | 1015.8 |
| 20260508151018 | 80 | 276 | 0.0 | 0.9 | 0.00 | 0.00 | 0.00 | 76 | 1015.7 |
| 20260508150515 | 79 | 278 | 0.0 | 4.3 | 0.00 | 0.00 | 0.00 | 76 | 1015.7 |
| 20260508150018 | 79 | 316 | 0.0 | 4.3 | 0.00 | 0.00 | 0.00 | 76 | 1015.7 |
| 20260508145510 | 79 | 75 | 0.0 | 3.5 | 0.00 | 0.00 | 0.00 | 78 | 1015.6 |
| 20260508145007 | 78 | 321 | 0.0 | 3.5 | 0.00 | 0.00 | 0.00 | 79 | 1015.6 |
| 20260508144506 | 78 | 96 | 0.0 | 3.5 | 0.00 | 0.00 | 0.00 | 81 | 1015.6 |
| 20260508144007 | 77 | 316 | 0.0 | 1.7 | 0.00 | 0.00 | 0.00 | 82 | 1015.5 |
| 20260508143505 | 76 | 178 | 0.0 | 2.6 | 0.00 | 0.00 | 0.00 | 84 | 1015.5 |
| 20260508143005 | 76 | 319 | 0.0 | 2.6 | 0.00 | 0.00 | 0.00 | 84 | 1015.5 |
| 20260508142502 | 75 | 269 | 0.0 | 1.7 | 0.00 | 0.00 | 0.00 | 84 | 1015.6 |
| 20260508142016 | 75 | 332 | 0.0 | 1.7 | 0.00 | 0.00 | 0.00 | 84 | 1015.6 |
| 20260508141603 | 75 | 139 | 0.0 | 0.9 | 0.00 | 0.00 | 0.00 | 84 | 1015.6 |
| 20260508141059 | 75 | 267 | 0.0 | 1.7 | 0.00 | 0.00 | 0.00 | 85 | 1015.5 |
| 20260508140601 | 75 | 328 | 0.0 | 1.7 | 0.00 | 0.00 | 0.00 | 86 | 1015.5 |
| 20260508140502 | 75 | 309 | 0.0 | 1.7 | 0.00 | 0.00 | 0.00 | 86 | 1015.4 |
| 20260508140106 | 75 | 288 | 0.0 | 3.5 | 0.00 | 0.00 | 0.00 | 86 | 1015.3 |
| 20260508135657 | 75 | 119 | 0.0 | 3.5 | 0.00 | 0.00 | 0.00 | 87 | 1015.4 |
| 20260508135053 | 75 | 334 | 0.0 | 0.9 | 0.00 | 0.00 | 0.00 | 87 | 1015.3 |
| 20260508134549 | 75 | 349 | 0.0 | 0.9 | 0.00 | 0.00 | 0.00 | 87 | 1015.3 |
| 20260508134047 | 75 | 330 | 0.0 | 1.7 | 0.00 | 0.00 | 0.00 | 88 | 1015.3 |
| 20260508133549 | 75 | 318 | 0.0 | 1.7 | 0.00 | 0.00 | 0.00 | 88 | 1015.2 |
| 20260508133048 | 76 | 335 | 0.0 | 1.7 | 0.00 | 0.00 | 0.00 | 89 | 1015.2 |
| 20260508132546 | 76 | 344 | 0.0 | 0.0 | 0.00 | 0.00 | 0.00 | 90 | 1015.1 |
| 20260508132043 | 76 | 339 | 0.0 | 0.0 | 0.00 | 0.00 | 0.00 | 90 | 1015.0 |
| 20260508131547 | 76 | 338 | 0.0 | 0.0 | 0.00 | 0.00 | 0.00 | 90 | 1014.9 |
| 20260508131042 | 76 | 309 | 0.0 | 0.0 | 0.00 | 0.00 | 0.00 | 91 | 1014.9 |
| 20260508130541 | 76 | 311 | 0.0 | 0.9 | 0.00 | 0.00 | 0.00 | 91 | 1014.9 |
| 20260508130038 | 76 | 311 | 0.0 | 0.9 | 0.00 | 0.00 | 0.00 | 92 | 1014.8 |
| 20260508125554 | 76 | 286 | 0.0 | 0.9 | 0.00 | 0.00 | 0.00 | 92 | 1014.6 |
| 20260508125036 | 76 | 304 | 0.0 | 0.9 | 0.00 | 0.00 | 0.00 | 93 | 1014.7 |
| 20260508124644 | 76 | 234 | 0.0 | 0.9 | 0.00 | 0.00 | 0.00 | 93 | 1014.8 |
| 20260508124039 | 75 | 234 | 0.0 | 0.9 | 0.00 | 0.00 | 0.00 | 93 | 1014.7 |
| 20260508123534 | 75 | 234 | 0.0 | 0.0 | 0.00 | 0.00 | 0.00 | 93 | 1014.8 |
| 20260508123033 | 75 | 234 | 0.0 | 0.0 | 0.00 | 0.00 | 0.00 | 93 | 1014.8 |
| 20260508122531 | 75 | 234 | 0.0 | 0.0 | 0.00 | 0.00 | 0.00 | 93 | 1014.8 |
| 20260508122033 | 75 | 234 | 0.0 | 0.0 | 0.00 | 0.00 | 0.00 | 93 | 1014.7 |
| 20260508121531 | 74 | 234 | 0.0 | 0.9 | 0.00 | 0.00 | 0.00 | 93 | 1014.7 |
| 20260508121031 | 74 | 234 | 0.0 | 0.9 | 0.00 | 0.00 | 0.00 | 93 | 1014.7 |
| 20260508120526 | 74 | 245 | 0.0 | 0.0 | 0.00 | 0.00 | 0.00 | 93 | 1014.6 |
| 20260508120030 | 74 | 245 | 0.0 | 0.0 | 0.00 | 0.00 | 0.00 | 93 | 1014.5 |
| 20260508115519 | 74 | 245 | 0.0 | 0.0 | 0.00 | 0.00 | 0.00 | 93 | 1014.3 |
| 20260508115017 | 74 | 245 | 0.0 | 0.0 | 0.00 | 0.00 | 0.00 | 93 | 1014.2 |
| 20260508114517 | 74 | 245 | 0.0 | 0.0 | 0.00 | 0.00 | 0.00 | 93 | 1014.1 |
| 20260508114014 | 74 | 245 | 0.0 | 0.0 | 0.00 | 0.00 | 0.00 | 93 | 1014.0 |
| 20260508113513 | 74 | 245 | 0.0 | 0.0 | 0.00 | 0.00 | 0.00 | 92 | 1013.8 |
| 20260508113015 | 74 | 245 | 0.0 | 0.9 | 0.00 | 0.00 | 0.00 | 92 | 1014.0 |
| 20260508112516 | 74 | 245 | 0.0 | 0.9 | 0.00 | 0.00 | 0.00 | 92 | 1013.8 |
| 20260508112013 | 73 | 245 | 0.0 | 0.0 | 0.00 | 0.00 | 0.00 | 92 | 1013.9 |
| 20260508111511 | 73 | 245 | 0.0 | 0.0 | 0.00 | 0.00 | 0.00 | 92 | 1013.7 |
| 20260508111014 | 73 | 246 | 0.0 | 0.0 | 0.00 | 0.00 | 0.00 | 92 | 1013.6 |
| 20260508110508 | 73 | 246 | 0.0 | 0.0 | 0.00 | 0.00 | 0.00 | 92 | 1013.5 |
| 20260508110005 | 73 | 245 | 0.0 | 0.0 | 0.00 | 0.00 | 0.00 | 92 | 1013.5 |
| 20260508105505 | 73 | 246 | 0.0 | 0.0 | 0.00 | 0.00 | 0.00 | 92 | 1013.3 |
| 20260508105007 | 73 | 245 | 0.0 | 0.0 | 0.00 | 0.00 | 0.00 | 92 | 1013.0 |
| 20260508104503 | 73 | 245 | 0.0 | 0.0 | 0.00 | 0.00 | 0.00 | 92 | 1013.1 |
| 20260508104005 | 73 | 245 | 0.0 | 0.0 | 0.00 | 0.00 | 0.00 | 92 | 1013.3 |
| 20260508103502 | 73 | 246 | 0.0 | 0.0 | 0.00 | 0.00 | 0.00 | 93 | 1013.0 |
| 20260508103000 | 73 | 246 | 0.0 | 0.0 | 0.00 | 0.00 | 0.00 | 92 | 1012.9 |
| 20260508102503 | 72 | 246 | 0.0 | 0.0 | 0.00 | 0.00 | 0.00 | 92 | 1013.0 |
| 20260508102001 | 72 | 246 | 0.0 | 0.0 | 0.00 | 0.00 | 0.00 | 92 | 1012.9 |
| 20260508101600 | 72 | 245 | 0.0 | 0.0 | 0.00 | 0.00 | 0.00 | 92 | 1012.8 |
| 20260508101058 | 72 | 246 | 0.0 | 0.0 | 0.00 | 0.00 | 0.00 | 92 | 1012.8 |
| 20260508100600 | 72 | 246 | 0.0 | 0.0 | 0.00 | 0.00 | 0.00 | 92 | 1012.7 |
| 20260508100101 | 72 | 246 | 0.0 | 0.0 | 0.00 | 0.00 | 0.00 | 92 | 1012.5 |
| 20260508095555 | 72 | 246 | 0.0 | 0.0 | 0.00 | 0.00 | 0.00 | 92 | 1012.5 |
| 20260508095049 | 72 | 245 | 0.0 | 0.0 | 0.00 | 0.00 | 0.00 | 92 | 1012.5 |
| 20260508094548 | 73 | 246 | 0.0 | 0.0 | 0.00 | 0.00 | 0.00 | 92 | 1012.5 |
| 20260508094048 | 73 | 246 | 0.0 | 0.0 | 0.00 | 0.00 | 0.00 | 92 | 1012.4 |
| 20260508093555 | 73 | 246 | 0.0 | 0.0 | 0.00 | 0.00 | 0.00 | 92 | 1012.5 |
| 20260508093155 | 73 | 246 | 0.0 | 0.0 | 0.00 | 0.00 | 0.00 | 91 | 1012.5 |
| 20260508092535 | 73 | 246 | 0.0 | 0.0 | 0.00 | 0.00 | 0.00 | 91 | 1012.4 |
| 20260508092035 | 73 | 246 | 0.0 | 0.0 | 0.00 | 0.00 | 0.00 | 91 | 1012.4 |
| 20260508091543 | 73 | 245 | 0.0 | 0.0 | 0.00 | 0.00 | 0.00 | 91 | 1012.3 |
| 20260508091033 | 73 | 246 | 0.0 | 0.0 | 0.00 | 0.00 | 0.00 | 91 | 1012.4 |
| 20260508090533 | 73 | 245 | 0.0 | 0.0 | 0.00 | 0.00 | 0.00 | 91 | 1012.3 |
| 20260508090031 | 73 | 245 | 0.0 | 0.0 | 0.00 | 0.00 | 0.00 | 91 | 1012.3 |
| 20260508090012 | 73 | 246 | 0.0 | 0.0 | 0.00 | 0.00 | 0.00 | 91 | 1012.4 |
| 20260508085513 | 73 | 246 | 0.0 | 0.0 | 0.00 | 0.00 | 0.00 | 91 | 1012.4 |
| 20260508085012 | 74 | 245 | 0.0 | 0.9 | 0.00 | 0.00 | 0.00 | 91 | 1012.3 |
| 20260508084512 | 74 | 246 | 0.0 | 0.9 | 0.00 | 0.00 | 0.00 | 91 | 1012.2 |
| 20260508084010 | 74 | 240 | 0.0 | 0.9 | 0.00 | 0.00 | 0.00 | 91 | 1012.4 |
| 20260508083513 | 74 | 240 | 0.0 | 0.9 | 0.00 | 0.00 | 0.00 | 91 | 1012.3 |
| 20260508083011 | 74 | 242 | 0.0 | 1.7 | 0.00 | 0.00 | 0.00 | 90 | 1012.4 |
| 20260508082507 | 74 | 242 | 0.0 | 1.7 | 0.00 | 0.00 | 0.00 | 90 | 1012.3 |
| 20260508082006 | 74 | 239 | 0.0 | 0.0 | 0.00 | 0.00 | 0.00 | 90 | 1012.4 |
| 20260508081505 | 74 | 239 | 0.0 | 0.9 | 0.00 | 0.00 | 0.00 | 90 | 1012.3 |
| 20260508081008 | 74 | 239 | 0.0 | 0.9 | 0.00 | 0.00 | 0.00 | 90 | 1012.4 |
| 20260508080504 | 74 | 239 | 0.0 | 0.9 | 0.00 | 0.00 | 0.00 | 90 | 1012.4 |
| 20260508080007 | 74 | 239 | 0.0 | 0.9 | 0.00 | 0.00 | 0.00 | 90 | 1012.4 |
| 20260508075600 | 74 | 243 | 0.0 | 0.9 | 0.00 | 0.00 | 0.00 | 90 | 1012.4 |
| 20260508075101 | 75 | 219 | 0.0 | 0.9 | 0.00 | 0.00 | 0.00 | 90 | 1012.4 |
| 20260508074604 | 75 | 219 | 0.0 | 0.9 | 0.00 | 0.00 | 0.00 | 90 | 1012.4 |
| 20260508074059 | 75 | 231 | 0.0 | 0.9 | 0.00 | 0.00 | 0.00 | 90 | 1012.5 |
| 20260508073559 | 75 | 231 | 0.0 | 2.6 | 0.00 | 0.00 | 0.00 | 90 | 1012.5 |
| 20260508073056 | 75 | 229 | 0.0 | 2.6 | 0.00 | 0.00 | 0.00 | 89 | 1012.6 |
| 20260508072553 | 75 | 243 | 0.0 | 2.6 | 0.00 | 0.00 | 0.00 | 89 | 1012.5 |
| 20260508072053 | 75 | 237 | 0.0 | 3.5 | 0.00 | 0.00 | 0.00 | 89 | 1012.7 |
| 20260508071555 | 75 | 233 | 0.0 | 3.5 | 0.00 | 0.00 | 0.00 | 89 | 1012.7 |
| 20260508071047 | 75 | 273 | 0.9 | 3.5 | 0.00 | 0.00 | 0.00 | 89 | 1012.9 |
| 20260508070544 | 75 | 234 | 0.9 | 3.5 | 0.00 | 0.00 | 0.00 | 89 | 1012.8 |
| 20260508070044 | 75 | 246 | 0.0 | 1.7 | 0.00 | 0.00 | 0.00 | 89 | 1012.8 |
| 20260508065545 | 75 | 244 | 0.0 | 2.6 | 0.00 | 0.00 | 0.00 | 89 | 1012.8 |
| 20260508065041 | 75 | 245 | 0.0 | 2.6 | 0.00 | 0.00 | 0.00 | 89 | 1012.8 |
| 20260508064540 | 75 | 238 | 0.0 | 3.5 | 0.00 | 0.00 | 0.00 | 89 | 1012.9 |
| 20260508064038 | 76 | 238 | 0.0 | 3.5 | 0.00 | 0.00 | 0.00 | 89 | 1012.9 |
| 20260508063538 | 76 | 227 | 0.0 | 3.5 | 0.00 | 0.00 | 0.00 | 89 | 1012.9 |
| 20260508063040 | 76 | 214 | 0.0 | 2.6 | 0.00 | 0.00 | 0.00 | 89 | 1012.9 |
| 20260508062535 | 76 | 259 | 0.0 | 2.6 | 0.00 | 0.00 | 0.00 | 88 | 1013.1 |
| 20260508062149 | 76 | 288 | 0.0 | 2.6 | 0.00 | 0.00 | 0.00 | 88 | 1013.0 |
| 20260508061633 | 76 | 275 | 0.0 | 3.5 | 0.00 | 0.00 | 0.00 | 88 | 1013.1 |
| 20260508061033 | 76 | 257 | 0.9 | 3.5 | 0.00 | 0.00 | 0.00 | 88 | 1013.1 |
| 20260508060539 | 76 | 313 | 0.0 | 7.0 | 0.00 | 0.00 | 0.00 | 88 | 1013.0 |
| 20260508060028 | 76 | 229 | 0.9 | 7.0 | 0.00 | 0.00 | 0.00 | 88 | 1013.1 |
| 20260508055526 | 76 | 191 | 0.0 | 2.6 | 0.00 | 0.00 | 0.00 | 88 | 1013.1 |
| 20260508055028 | 76 | 236 | 0.0 | 2.6 | 0.00 | 0.00 | 0.00 | 87 | 1013.3 |
| 20260508054526 | 76 | 246 | 0.0 | 2.6 | 0.00 | 0.00 | 0.00 | 87 | 1013.3 |
| 20260508054024 | 76 | 243 | 0.0 | 2.6 | 0.00 | 0.00 | 0.00 | 87 | 1013.3 |
| 20260508053523 | 76 | 328 | 0.0 | 3.5 | 0.00 | 0.00 | 0.00 | 87 | 1013.3 |
| 20260508053021 | 77 | 264 | 0.0 | 2.6 | 0.00 | 0.00 | 0.00 | 87 | 1013.2 |
| 20260508052637 | 77 | 262 | 0.0 | 3.5 | 0.00 | 0.00 | 0.00 | 87 | 1013.2 |
| 20260508052019 | 77 | 229 | 0.9 | 4.3 | 0.00 | 0.00 | 0.00 | 87 | 1013.2 |
| 20260508051528 | 77 | 240 | 0.9 | 5.2 | 0.00 | 0.00 | 0.00 | 87 | 1013.2 |
| 20260508051018 | 77 | 243 | 1.7 | 5.2 | 0.00 | 0.00 | 0.00 | 87 | 1013.2 |
| 20260508050516 | 77 | 238 | 0.0 | 3.5 | 0.00 | 0.00 | 0.00 | 87 | 1013.2 |
| 20260508050013 | 77 | 233 | 0.0 | 7.8 | 0.00 | 0.00 | 0.00 | 87 | 1013.3 |
| 20260508045616 | 78 | 300 | 1.7 | 7.8 | 0.00 | 0.00 | 0.00 | 86 | 1013.4 |
| 20260508045052 | 78 | 249 | 1.7 | 7.8 | 0.00 | 0.00 | 0.00 | 86 | 1013.3 |
| 20260508044550 | 78 | 297 | 1.7 | 7.8 | 0.00 | 0.00 | 0.00 | 86 | 1013.3 |
| 20260508044053 | 78 | 245 | 1.7 | 7.8 | 0.00 | 0.00 | 0.00 | 86 | 1013.4 |
| 20260508043554 | 78 | 266 | 0.9 | 7.8 | 0.00 | 0.00 | 0.00 | 86 | 1013.5 |
| 20260508043103 | 78 | 292 | 1.7 | 3.5 | 0.00 | 0.00 | 0.00 | 86 | 1013.4 |
| 20260508042552 | 78 | 283 | 0.0 | 2.6 | 0.00 | 0.00 | 0.00 | 86 | 1013.3 |
| 20260508042045 | 78 | 283 | 0.0 | 5.2 | 0.00 | 0.00 | 0.00 | 85 | 1013.2 |
| 20260508041544 | 78 | 262 | 1.7 | 5.2 | 0.00 | 0.00 | 0.00 | 85 | 1013.3 |
| 20260508041046 | 78 | 221 | 0.9 | 6.1 | 0.00 | 0.00 | 0.00 | 85 | 1013.4 |
| 20260508040544 | 78 | 214 | 0.9 | 5.2 | 0.00 | 0.00 | 0.00 | 84 | 1013.4 |
| 20260508040044 | 78 | 243 | 0.9 | 7.8 | 0.00 | 0.00 | 0.00 | 84 | 1013.3 |
| 20260508035539 | 78 | 296 | 2.6 | 8.7 | 0.00 | 0.00 | 0.00 | 84 | 1013.2 |
| 20260508035038 | 79 | 276 | 2.6 | 8.7 | 0.00 | 0.00 | 0.00 | 83 | 1013.3 |
| 20260508034539 | 79 | 224 | 0.0 | 7.0 | 0.00 | 0.00 | 0.00 | 83 | 1013.3 |
| 20260508034036 | 79 | 293 | 0.9 | 5.2 | 0.00 | 0.00 | 0.00 | 83 | 1013.1 |
| 20260508033539 | 79 | 246 | 0.0 | 5.2 | 0.00 | 0.00 | 0.00 | 83 | 1013.2 |
| 20260508033038 | 79 | 267 | 0.9 | 6.1 | 0.00 | 0.00 | 0.00 | 82 | 1013.2 |
| 20260508032538 | 79 | 265 | 0.0 | 6.1 | 0.00 | 0.00 | 0.00 | 82 | 1013.2 |
| 20260508032005 | 79 | 263 | 0.0 | 5.2 | 0.00 | 0.00 | 0.00 | 82 | 1013.1 |
| 20260508031508 | 79 | 247 | 0.0 | 5.2 | 0.00 | 0.00 | 0.00 | 81 | 1013.1 |
| 20260508031005 | 80 | 289 | 0.0 | 6.1 | 0.00 | 0.00 | 0.00 | 80 | 1013.0 |
| 20260508030503 | 80 | 275 | 0.0 | 6.1 | 0.00 | 0.00 | 0.00 | 80 | 1013.0 |
| 20260508030003 | 80 | 141 | 1.7 | 6.1 | 0.00 | 0.00 | 0.00 | 80 | 1012.9 |
| 20260508025510 | 80 | 277 | 0.0 | 7.8 | 0.00 | 0.00 | 0.00 | 79 | 1012.9 |
| 20260508025003 | 80 | 269 | 0.9 | 6.1 | 0.00 | 0.00 | 0.00 | 79 | 1012.8 |
| 20260508023558 | 81 | 275 | 0.9 | 5.2 | 0.00 | 0.00 | 0.00 | 78 | 1012.7 |
| 20260508023101 | 81 | 295 | 0.9 | 6.1 | 0.00 | 0.00 | 0.00 | 77 | 1012.9 |
| 20260508022057 | 81 | 229 | 0.9 | 3.5 | 0.00 | 0.00 | 0.00 | 75 | 1012.7 |
| 20260508021550 | 81 | 217 | 0.9 | 2.6 | 0.00 | 0.00 | 0.00 | 74 | 1012.6 |
| 20260508021049 | 81 | 321 | 0.0 | 5.2 | 0.00 | 0.00 | 0.00 | 73 | 1012.6 |
| 20260508020551 | 81 | 305 | 0.9 | 5.2 | 0.00 | 0.00 | 0.00 | 73 | 1012.6 |
| 20260508020048 | 81 | 250 | 0.0 | 3.5 | 0.00 | 0.00 | 0.00 | 72 | 1012.5 |
| 20260508015548 | 82 | 259 | 0.0 | 3.5 | 0.00 | 0.00 | 0.00 | 72 | 1012.5 |
| 20260508015051 | 82 | 243 | 0.0 | 2.6 | 0.00 | 0.00 | 0.00 | 72 | 1012.4 |
| 20260508014547 | 82 | 256 | 0.0 | 1.7 | 0.00 | 0.00 | 0.00 | 71 | 1012.3 |
| 20260508014050 | 82 | 248 | 0.0 | 2.6 | 0.00 | 0.00 | 0.00 | 70 | 1012.3 |
| 20260508013546 | 83 | 230 | 0.0 | 5.2 | 0.00 | 0.00 | 0.00 | 69 | 1012.2 |
| 20260508013047 | 83 | 243 | 1.7 | 5.2 | 0.00 | 0.00 | 0.00 | 70 | 1012.3 |
| 20260508012550 | 83 | 227 | 0.0 | 5.2 | 0.00 | 0.00 | 0.00 | 69 | 1012.4 |
| 20260508012031 | 83 | 272 | 0.9 | 4.3 | 0.00 | 0.00 | 0.00 | 69 | 1012.2 |
| 20260508011530 | 83 | 192 | 0.0 | 4.3 | 0.00 | 0.00 | 0.00 | 69 | 1012.0 |
| 20260508011026 | 83 | 239 | 1.7 | 4.3 | 0.00 | 0.00 | 0.00 | 68 | 1012.0 |
| 20260508010528 | 83 | 250 | 0.9 | 3.5 | 0.00 | 0.00 | 0.00 | 67 | 1011.7 |
| 20260508010029 | 83 | 244 | 0.9 | 3.5 | 0.00 | 0.00 | 0.00 | 67 | 1011.8 |
| 20260508005527 | 84 | 264 | 0.0 | 4.3 | 0.00 | 0.00 | 0.00 | 67 | 1011.9 |
| 20260508005001 | 84 | 304 | 0.9 | 5.2 | 0.00 | 0.00 | 0.00 | 66 | 1011.7 |
| 20260508004603 | 84 | 232 | 0.9 | 5.2 | 0.00 | 0.00 | 0.00 | 65 | 1011.7 |
| 20260508004107 | 84 | 256 | 0.9 | 6.1 | 0.00 | 0.00 | 0.00 | 65 | 1011.5 |
| 20260508003557 | 84 | 243 | 0.9 | 4.3 | 0.00 | 0.00 | 0.00 | 65 | 1011.6 |
| 20260508002603 | 85 | 221 | 0.9 | 5.2 | 0.00 | 0.00 | 0.00 | 64 | 1011.7 |
| 20260508002057 | 85 | 243 | 0.9 | 4.3 | 0.00 | 0.00 | 0.00 | 62 | 1011.7 |
| 20260508001555 | 85 | 133 | 0.0 | 4.3 | 0.00 | 0.00 | 0.00 | 61 | 1011.5 |
| 20260508001054 | 85 | 251 | 0.0 | 7.0 | 0.00 | 0.00 | 0.00 | 61 | 1011.8 |
| 20260508000556 | 85 | 256 | 0.0 | 7.0 | 0.00 | 0.00 | 0.00 | 61 | 1011.7 |
| 20260508000052 | 86 | 312 | 1.7 | 7.0 | 0.00 | 0.00 | 0.00 | 60 | 1011.7 |
| 20260507235655 | 86 | 237 | 2.6 | 7.0 | 0.00 | 0.00 | 0.00 | 59 | 1011.7 |
| 20260507235051 | 86 | 225 | 0.0 | 4.3 | 0.00 | 0.00 | 0.00 | 61 | 1011.7 |
| 20260507234554 | 86 | 221 | 0.0 | 5.2 | 0.00 | 0.00 | 0.00 | 60 | 1011.7 |
| 20260507234052 | 86 | 250 | 0.9 | 5.2 | 0.00 | 0.00 | 0.00 | 60 | 1011.5 |
| 20260507233552 | 87 | 262 | 1.7 | 4.3 | 0.00 | 0.00 | 0.00 | 59 | 1011.4 |
| 20260507233047 | 87 | 245 | 0.9 | 3.5 | 0.00 | 0.00 | 0.00 | 58 | 1011.4 |
| 20260507232547 | 87 | 253 | 0.9 | 4.3 | 0.00 | 0.00 | 0.00 | 57 | 1011.3 |
| 20260507232046 | 87 | 231 | 1.7 | 4.3 | 0.00 | 0.00 | 0.00 | 57 | 1011.2 |
| 20260507231550 | 87 | 248 | 0.9 | 4.3 | 0.00 | 0.00 | 0.00 | 56 | 1011.2 |
| 20260507231050 | 87 | 234 | 0.0 | 4.3 | 0.00 | 0.00 | 0.00 | 55 | 1011.3 |
| 20260507230543 | 88 | 251 | 0.9 | 5.2 | 0.00 | 0.00 | 0.00 | 54 | 1011.2 |
| 20260507230042 | 88 | 243 | 1.7 | 5.2 | 0.00 | 0.00 | 0.00 | 54 | 1011.1 |
| 20260507225544 | 88 | 248 | 0.9 | 5.2 | 0.00 | 0.00 | 0.00 | 55 | 1011.1 |